Location: Rotheul
(50.2849°N, 11.2349°E)
Time: 17:19:46
(UTC+02:00)

ISS - Pass Details

Date: 24 May 2018
Orbit: 402 x 407 km, 51.6° (Epoch: 27 May)

Event Time Altitude Azimuth Distance (km) Brightness Sun altitude
Rises 01:19:52 0° 282° (WNW) 2,320 0.2 -19.0°
Reaches altitude 10° 01:21:57 10° 284° (WNW) 1,459 -0.9 -19.0°
Maximum altitude 01:25:14 81° 12° (NNE) 413 -3.8 -18.9°
Enters shadow 01:27:51 15° 99° (E) 1,198 -1.5 -18.9°
